Location: Taupo
(38.6830°S, 176.0830°E)
Time: 22:09:44
(UTC+13:00)

ERS-1 Rocket - Pass Details

Date: 24 January 2019
Orbit: 754 x 757 km, 98.5° (Epoch: 18 October)

Event Time Altitude Azimuth Distance (km) Brightness Sun altitude
Rises 22:36:29 0° 154° (SSE) 3,243 6.5 -19.6°
Reaches altitude 10° 22:39:11 10° 141° (SE) 2,309 5.6 -19.9°
Enters shadow 22:42:48 25° 96° (E) 1,506 4.2 -20.4°
